Погода в Наксосе

Греция     37°06′04″N   25°22′37″E
темп.,
°C
ветер,
м/с
пор.,
м/с
влажн.,
%
обл.,
%
осадки,
мм/ч
давл.,
гПа
погр.,
м
9 марта, вт
вт923:00+11св236793 0.0 1016174
02:00+11св336992 0.0 1015203
05:00+11св456982 0.0 1014288
08:00+12св676991 0.0 1014435
11:00+14св775877 0.0 1015563
14:00+15св775642 0.0 1014634
17:00+14св67612 0.0 1013496
20:00+13ссв68641 0.0 1014294
10 марта, ср
ср1023:00+13св676867 0.0 1014298
02:00+13св677383 0.0 1013343
05:00+13всв3484100 0.2 1012277
08:00+14св447992 0.4 1013352
11:00+15всв337576 0.4 1013518
14:00+16ссв117064 0.8 1012549
17:00+15с117355 0.2 1011347
20:00+14ююз118057 0.3 101396
11 марта, чт
чт1123:00+13зюз3484100 0.0 1013249
02:00+13юз448388 0.0 1012195
05:00+13ююз458829 0.0 1011183
08:00+14зюз468015 0.0 1011528
11:00+16зюз8107413 0.8 1011762
14:00+15зсз1011666 1.4 10111137
17:00+13ссз1314741 0.6 10121128
20:00+11с14177829 0.8 10161364
12 марта, пт
пт1223:00+10с13167663 0.2 10201149
02:00+9с11157242 0.2 1021999
05:00+9с912690 0.0 1021811
08:00+10с912640 0.0 10231099
11:00+11с810550 0.0 10241072
14:00+12с910570 0.0 1023898
17:00+11с810600 0.0 1021730
20:00+10с79660 0.0 1021461
13 марта, сб
сб1323:00+10ссз56640 0.0 1022351
02:00+9ссз346634 0.0 1021309
05:00+9ссз236828 0.0 1020265
08:00+11с336543 0.0 1020371
11:00+13з115788 0.0 1021618
14:00+13ю115894 0.0 1020529
17:00+12юв2262100 0.0 1018492
20:00+12с0163100 0.0 1017220